Other Public Products
Issued by NWS Charleston, SC

Current Version | Previous Version | Graphics & Text | Print | Product List | Glossary On
Versions: 1 2 3 4 5 6 7 8 9 10 11 12 13 14 15 16 17 18 19 20 21 22 23 24 25 26 27 28 29 30 31 32 33 34 35 36 37 38 39 40 41 42 43 44 45 46 47 48 49 50
410 FPUS82 KCHS 161612 OPUCHS TEST...KCHS/KSAV Gateway Observations...TEST National Weather Service Charleston SC 1200 PM EDT WED AUG 16 2017 NOTE: "fair" indicates few or no clouds below 12,000 feet with no significant weather and/or obstructions to visibility. SCZ050-WAZ558-NCZ071-TXZ119-213-PAZ071-DCZ001-FLZ074-172-MI076- NYZ176-178-MAZ016-IL014-TNZ027-NJZ106-GAZ044-MD014-161700- ...Gateway Observations for Charleston International... CITY SKY/WX TMP DP RH WIND PRES REMARKS Chas Airport MOSUNNY 92 75 57 NW10 30.02S HX 103 Seattle MOSUNNY 61 52 72 S7 30.11R Charlotte MOSUNNY 87 74 64 VRB3 30.06F HX 95 Dallas DFW PTSUNNY 89 74 60 S20 29.92S HX 98 Dallas Love PTSUNNY 88 73 61 SW10G22 29.94S HX 95 Philladelphia CLOUDY 83 67 58 W3 29.99F Wash National CLOUDY 85 73 67 E3 30.01F HX 91 Baltimore PTSUNNY 84 73 69 W5 30.00S HX 90 Miami PTSUNNY 92 76 59 SW13 30.10R THUNDER HX 104 Detroit PTSUNNY 78 55 44 VRB7 30.09S Newark PTSUNNY 85 62 46 NW13G20 29.96F Laguardia MOSUNNY 82 65 56 N8 29.95F J F K MOSUNNY 84 65 52 NW14 29.96F Boston Logan MOSUNNY 82 59 45 NW13G20 29.91S Ft. Lauderdale MOSUNNY 90 77 65 E8 30.09S HX 103 Chicago O`Hare MOSUNNY 81 66 60 SE6 29.99S Chicago Midway SUNNY 82 68 62 E3 29.99S Houston Bush PTSUNNY 91 76 61 S9 29.99R HX 103 Houston Hobby PTSUNNY 91 75 59 S10 29.99R HX 101 Nashville PTSUNNY 82 75 79 VRB3 30.08S Atlanta CLOUDY 85 73 67 W5 30.10F HX 91 $$ GAZ044-118-TXZ119-213-NCZ071-DCZ001-MDZ014-506-PAZ021-071-NJZ106- NYZ176-178-MAZ106-OHZ011-021-055-MIZ076-KYZ091-ILZ014-INZ047- MNZ060-ONZ431-161700- ...Gateway Observations for Savannah International... CITY SKY/WX TMP DP RH WIND PRES REMARKS Savannah Arpt MOSUNNY 92 76 59 VRB5 30.05S HX 104 Atlanta CLOUDY 85 73 67 W5 30.10F HX 91 Charlotte MOSUNNY 87 74 64 VRB3 30.06F HX 95 Dallas DFW PTSUNNY 89 74 60 S20 29.92S HX 98 Houston Bush PTSUNNY 91 76 61 S9 29.99R HX 103 Wash National CLOUDY 85 73 67 E3 30.01F HX 91 Wash Dulles PTSUNNY 83 72 69 NW5 30.02F Baltimore PTSUNNY 84 73 69 W5 30.00S HX 90 Philadelphia CLOUDY 83 67 58 W3 29.99F Newark PTSUNNY 85 62 46 NW13G20 29.96F Laguardia MOSUNNY 82 65 56 N8 29.95F J F K MOSUNNY 84 65 52 NW14 29.96F Boston MOSUNNY 82 59 45 NW13G20 29.91S Pittsburg MOSUNNY 80 58 46 N8 30.09F Akron SUNNY 82 59 45 VRB5 30.10S Cleveland SUNNY 82 58 43 CALM 30.10S Cincinnati MOSUNNY 85 71 63 SW5 30.06S HX 90 Columbus SUNNY 82 71 68 SW3 30.06S Detroit PTSUNNY 78 55 44 VRB7 30.09S Chicago O`Hare MOSUNNY 81 66 60 SE6 29.99S Minneapolis CLOUDY 68 63 84 SE14 29.90S Indianapolis PTSUNNY 85 70 60 SE7 30.03S Toronto Canada PTSUNNY 72 61 68 E3 30.10S $$

USA.gov is the U.S. government's official web portal to all federal, state and local government web resources and services.